DW5978 Whyalla SA AU current weather conditions

sailwx.info

Wind from 305 at 0 knots gusting 0

Air temperature 6.1° C
Dewpoint 5.5° C

Last reported at 2014-Sep-02 20:45 UTC.
Time now 2014-Sep-02 21:33 UTC

Location: S 33°01' E 137°32'.
View on Google Maps.

See reports from other nearby stations

  
Tides and Currents Weather Stations Pressure Air Temp Water Temp Dewpoint Dewpoint Depression Visibility Wind Speed Wind Dir Waves Ship Positions
date/time (UTC)wind fromknots sea level pressurealtimeterstation pressurevisibilityair tempwater tempwave heightnotes
2014-Sep-02 20:45 305 0 gusting 0 6.1
2014-Sep-02 20:30 302 6.1
2014-Sep-02 20:15 302 6.1
2014-Sep-02 20:00 304 0 gusting 1 6.1
2014-Sep-02 19:44 302 6.1
2014-Sep-02 19:29 302 1 gusting 2 5.6
2014-Sep-02 19:14 321 5.6
2014-Sep-02 18:59 321 5.6
2014-Sep-02 18:44 321 5.6
2014-Sep-02 18:29 325 5.6
2014-Sep-02 18:14 325 5.6
2014-Sep-02 17:59 325 6.1
2014-Sep-02 17:44 325 6.1
2014-Sep-02 17:29 325 6.1
2014-Sep-02 17:14 325 0 gusting 1 6.1
2014-Sep-02 16:59 325 5.6
2014-Sep-02 16:44 325 5.6
2014-Sep-02 16:29 325 5.6
2014-Sep-02 16:14 325 6.1
2014-Sep-02 15:59 328 6.1
2014-Sep-02 15:44 328 6.7
2014-Sep-02 15:29 328 6.7
2014-Sep-02 15:14 328 6.7
2014-Sep-02 14:59 328 6.7
2014-Sep-02 14:44 328 6.7
2014-Sep-02 14:29 327 6.7
2014-Sep-02 14:15 327 7.2
2014-Sep-02 13:59 327 7.2
2014-Sep-02 13:44 325 7.2
2014-Sep-02 13:29 328 7.2
2014-Sep-02 13:14 325 7.2
2014-Sep-02 12:59 325 7.2
2014-Sep-02 12:44 325 7.8
2014-Sep-02 12:29 328 7.8
2014-Sep-02 12:14 327 7.8
2014-Sep-02 11:59 275 8.3
2014-Sep-02 11:44 269 8.9
2014-Sep-02 11:29 269 9.4
2014-Sep-02 11:14 268 9.4
2014-Sep-02 10:59 322 0 gusting 1 10.0
2014-Sep-02 10:44 229 10.6
2014-Sep-02 10:29 225 11.1
2014-Sep-02 10:14 187 2 gusting 6 11.1
2014-Sep-02 09:59 233 1 gusting 5 11.1
2014-Sep-02 09:44 193 2 gusting 6 11.7
2014-Sep-02 09:29 215 2 gusting 5 11.7
2014-Sep-02 09:14 188 2 gusting 6 11.7
2014-Sep-02 08:59 215 2 gusting 6 11.7
2014-Sep-02 08:44 207 2 gusting 8 12.2
2014-Sep-02 08:28 201 2 gusting 6 12.8
2014-Sep-02 08:13 207 5 gusting 10 13.3
2014-Sep-02 07:58 162 5 gusting 11 13.3
2014-Sep-02 07:43 222 6 gusting 12 13.9
2014-Sep-02 07:28 156 6 gusting 10 13.9
2014-Sep-02 07:13 167 5 gusting 10 14.4
2014-Sep-02 06:58 170 5 gusting 11 14.4
2014-Sep-02 06:43 197 4 gusting 13 15.0
2014-Sep-02 06:28 199 6 gusting 11 14.4
2014-Sep-02 06:13 221 6 gusting 12 15.0
2014-Sep-02 05:58 217 6 gusting 10 15.0
2014-Sep-02 05:43 174 6 gusting 11 15.0
2014-Sep-02 05:28 211 4 gusting 12 15.0
2014-Sep-02 05:13 163 6 gusting 13 14.4
2014-Sep-02 04:58 216 6 gusting 11 14.4
2014-Sep-02 04:43 181 6 gusting 13 14.4
2014-Sep-02 04:28 204 6 gusting 13 14.4
2014-Sep-02 04:13 174 6 gusting 12 14.4
2014-Sep-02 03:58 130 5 gusting 13 14.4
2014-Sep-02 03:43 174 6 gusting 16 14.4
2014-Sep-02 03:28 170 6 gusting 13 14.4
2014-Sep-02 03:13 177 6 gusting 12 14.4
2014-Sep-02 02:58 132 8 gusting 14 14.4
2014-Sep-02 02:43 159 7 gusting 13 13.9
2014-Sep-02 02:28 145 6 gusting 10 13.9
2014-Sep-02 02:13 135 6 gusting 14 13.9
2014-Sep-02 01:58 139 6 gusting 13 13.9
2014-Sep-02 01:43 208 7 gusting 13 13.9
2014-Sep-02 01:28 194 6 gusting 11 13.9
2014-Sep-02 01:13 156 7 gusting 16 13.9
2014-Sep-02 00:58 170 6 gusting 13 13.3
2014-Sep-02 00:43 235 6 gusting 13 12.8
2014-Sep-02 00:28 208 6 gusting 11 12.2
2014-Sep-02 00:13 200 6 gusting 13 12.2
2014-Sep-01 23:58 217 6 gusting 12 11.7
2014-Sep-01 23:43 183 6 gusting 11 11.1
2014-Sep-01 23:28 201 6 gusting 10 10.6
2014-Sep-01 23:13 218 6 gusting 12 10.0
2014-Sep-01 22:58 188 4 gusting 10 9.4
2014-Sep-01 22:43 248 3 gusting 8 8.9
2014-Sep-01 22:27 246 3 gusting 6 8.3
2014-Sep-01 22:12 207 3 gusting 9 8.3
2014-Sep-01 21:57 285 0 gusting 2 7.2
2014-Sep-01 21:42 291 0 gusting 2 6.7
2014-Sep-01 21:27 294 0 gusting 1 6.1
2014-Sep-01 21:12 293 6.1
2014-Sep-01 20:57 282 6.1
2014-Sep-01 20:42 283 0 gusting 4 6.7
2014-Sep-01 20:27 257 1 gusting 6 6.1
2014-Sep-01 20:12 288 0 gusting 2 6.7
2014-Sep-01 19:57 277 2 gusting 5 7.2
2014-Sep-01 19:42 262 2 gusting 5 6.7
2014-Sep-01 19:27 285 1 gusting 4 6.7
2014-Sep-01 19:12 281 1 gusting 6 6.7
2014-Sep-01 18:57 273 2 gusting 6 6.7
2014-Sep-01 18:42 288 0 gusting 2 6.1
2014-Sep-01 18:27 285 0 gusting 2 5.6
2014-Sep-01 18:12 314 0 gusting 1 5.6
2014-Sep-01 17:57 297 0 gusting 2 6.1
2014-Sep-01 17:42 281 1 gusting 3 5.6
2014-Sep-01 17:27 300 5.6
2014-Sep-01 17:12 288 6.1
2014-Sep-01 16:57 272 1 gusting 4 6.7
2014-Sep-01 16:42 232 1 gusting 6 6.7
2014-Sep-01 16:27 283 0 gusting 2 6.1
2014-Sep-01 16:12 294 0 gusting 2 6.1
2014-Sep-01 15:57 283 0 gusting 3 6.1
2014-Sep-01 15:42 280 1 gusting 3 6.1
2014-Sep-01 15:27 291 1 gusting 2 6.1
2014-Sep-01 15:11 294 1 gusting 3 6.1
2014-Sep-01 14:56 273 0 gusting 3 6.7
2014-Sep-01 14:41 285 1 gusting 2 6.7
2014-Sep-01 14:26 282 2 gusting 4 7.2
2014-Sep-01 14:11 297 1 gusting 5 7.2
2014-Sep-01 13:56 277 2 gusting 4 6.7
2014-Sep-01 13:41 291 1 gusting 3 6.7
2014-Sep-01 13:26 305 0 gusting 2 6.7
2014-Sep-01 13:11 273 0 gusting 2 7.8
2014-Sep-01 12:56 270 1 gusting 4 7.8
2014-Sep-01 12:41 278 0 gusting 2 7.8
2014-Sep-01 12:26 269 0 gusting 3 8.3
2014-Sep-01 12:21 280 1 gusting 4 8.3
2014-Sep-01 04:55 122 4 gusting 8 14.4
2014-Sep-01 04:42 141 4 gusting 10 15.0
2014-Sep-01 04:30 112 3 gusting 6 15.0
2014-Sep-01 04:10 089 4 gusting 8 14.4
2014-Sep-01 03:55 135 2 gusting 7 14.4
2014-Sep-01 03:41 198 3 gusting 8 13.9
2014-Sep-01 03:25 229 3 gusting 7 13.3
2014-Sep-01 03:10 225 3 gusting 9 12.8
2014-Sep-01 02:55 249 6 gusting 11 12.2
2014-Sep-01 02:41 191 2 gusting 5 12.8
2014-Sep-01 02:25 188 1 gusting 5 12.2
2014-Sep-01 02:10 243 0 gusting 5 12.2
2014-Sep-01 01:55 238 0 gusting 5 11.7
2014-Sep-01 01:40 229 2 gusting 4 11.7
2014-Sep-01 01:25 212 2 gusting 9 11.7
2014-Sep-01 01:10 240 4 gusting 10 12.2
2014-Sep-01 00:55 262 3 gusting 6 12.2
2014-Sep-01 00:40 282 1 gusting 4 12.2
2014-Sep-01 00:25 270 2 gusting 4 12.2
2014-Sep-01 00:10 294 1 gusting 3 12.2
2014-Aug-31 23:55 302 0 gusting 3 12.2
2014-Aug-31 23:40 319 0 gusting 3 12.2
2014-Aug-31 23:25 311 1 gusting 3 11.7
2014-Aug-31 23:10 297 1 gusting 4 11.7
2014-Aug-31 22:55 297 0 gusting 2 11.7
2014-Aug-31 22:40 281 0 gusting 3 11.7
2014-Aug-31 22:25 259 2 gusting 4 11.7
2014-Aug-31 22:10 330 11.7
2014-Aug-31 21:55 053 0 gusting 3 11.7
2014-Aug-31 21:50 358 2 gusting 3 11.7
2014-Aug-31 21:34 340 0 gusting 1 11.7
2014-Aug-31 21:09 204 11.7